• Em Portugal
  • Lista de países
  • Para 7 dias
  • Temperatura da água
  • Mapas de satélite
  • Mapa do tempo
  • Widgets de tempo
  • user-avatar
    Iniciar Sessão

    Previsão horária em Zuwara

    Hoje, 25 Maio, Sexta-feira

    Tempo Temperatura Precipitação Vento Pressão Humidade
    00:00 +23°C° 0 mm 5 m/s 761 mmHg 60%
    01:00 +23°C° 0 mm 5 m/s 761 mmHg 62%
    02:00 +23°C° 0 mm 5 m/s 761 mmHg 62%
    03:00 +23°C° 0 mm 4 m/s 761 mmHg 62%
    04:00 +23°C° 0 mm 4 m/s 761 mmHg 62%
    05:00 +23°C° 0 mm 4 m/s 761 mmHg 59%
    06:00 +25°C° 0 mm 3 m/s 761 mmHg 55%
    07:00 +25°C° 0 mm 3 m/s 761 mmHg 52%
    08:00 +27°C° 0 mm 3 m/s 761 mmHg 47%
    09:00 +28°C° 0 mm 3 m/s 761 mmHg 42%
    10:00 +30°C° 0 mm 3 m/s 761 mmHg 37%
    11:00 +32°C° 0 mm 4 m/s 761 mmHg 35%
    12:00 +32°C° 0 mm 4 m/s 761 mmHg 33%
    13:00 +33°C° 0 mm 5 m/s 761 mmHg 31%
    14:00 +33°C° 0 mm 6 m/s 761 mmHg 32%
    15:00 +33°C° 0 mm 6 m/s 760 mmHg 33%
    16:00 +32°C° 0 mm 7 m/s 760 mmHg 34%
    17:00 +30°C° 0 mm 7 m/s 760 mmHg 37%
    18:00 +29°C° 0 mm 7 m/s 760 mmHg 41%
    19:00 +28°C° 0 mm 7 m/s 760 mmHg 44%
    20:00 +27°C° 0 mm 6 m/s 760 mmHg 44%
    21:00 +27°C° 0 mm 6 m/s 761 mmHg 45%
    22:00 +26°C° 0 mm 5 m/s 761 mmHg 46%
    23:00 +26°C° 0 mm 5 m/s 761 mmHg 47%

    Amanhã, 26 Maio, Sábado

    Tempo Temperatura Precipitação Vento Pressão Humidade
    00:00 +26°C° 0 mm 5 m/s 761 mmHg 47%
    01:00 +25°C° 0 mm 4 m/s 761 mmHg 48%
    02:00 +25°C° 0 mm 4 m/s 761 mmHg 48%
    03:00 +25°C° 0 mm 4 m/s 761 mmHg 49%
    04:00 +25°C° 0 mm 3 m/s 761 mmHg 49%
    05:00 +25°C° 0 mm 4 m/s 761 mmHg 47%
    06:00 +26°C° 0 mm 4 m/s 761 mmHg 45%
    07:00 +26°C° 0 mm 5 m/s 761 mmHg 43%
    08:00 +28°C° 0 mm 4 m/s 762 mmHg 39%
    09:00 +29°C° 0 mm 4 m/s 762 mmHg 36%
    10:00 +32°C° 0 mm 4 m/s 762 mmHg 32%
    11:00 +32°C° 0 mm 5 m/s 762 mmHg 31%
    12:00 +33°C° 0 mm 5 m/s 762 mmHg 30%
    13:00 +34°C° 0 mm 6 m/s 762 mmHg 28%
    14:00 +33°C° 0 mm 6 m/s 761 mmHg 29%
    15:00 +33°C° 0 mm 6 m/s 761 mmHg 29%
    16:00 +33°C° 0 mm 7 m/s 761 mmHg 29%
    17:00 +32°C° 0 mm 7 m/s 761 mmHg 34%
    18:00 +29°C° 0 mm 6 m/s 761 mmHg 39%
    19:00 +28°C° 0 mm 6 m/s 761 mmHg 44%
    20:00 +28°C° 0 mm 6 m/s 762 mmHg 48%
    21:00 +27°C° 0 mm 6 m/s 762 mmHg 51%
    22:00 +27°C° 0 mm 6 m/s 762 mmHg 55%
    23:00 +26°C° 0 mm 6 m/s 762 mmHg 55%

    Depois de amanhã, 27 Maio, Domingo

    Tempo Temperatura Precipitação Vento Pressão Humidade
    00:00 +26°C° 0 mm 5 m/s 762 mmHg 56%
    01:00 +26°C° 0 mm 5 m/s 762 mmHg 57%
    02:00 +26°C° 0 mm 5 m/s 762 mmHg 56%
    03:00 +26°C° 0 mm 5 m/s 761 mmHg 56%
    04:00 +26°C° 0 mm 5 m/s 761 mmHg 55%
    05:00 +26°C° 0 mm 5 m/s 761 mmHg 53%
    06:00 +27°C° 0 mm 5 m/s 762 mmHg 50%
    07:00 +27°C° 0 mm 5 m/s 762 mmHg 48%
    08:00 +29°C° 0 mm 4 m/s 762 mmHg 43%
    09:00 +30°C° 0 mm 4 m/s 762 mmHg 38%
    10:00 +33°C° 0 mm 3 m/s 762 mmHg 33%
    11:00 +34°C° 0 mm 4 m/s 762 mmHg 30%
    12:00 +35°C° 0 mm 5 m/s 762 mmHg 28%
    13:00 +36°C° 0 mm 5 m/s 762 mmHg 25%
    14:00 +35°C° 0 mm 6 m/s 761 mmHg 26%
    15:00 +35°C° 0 mm 7 m/s 761 mmHg 28%
    16:00 +35°C° 0 mm 7 m/s 761 mmHg 29%
    17:00 +34°C° 0 mm 7 m/s 761 mmHg 33%
    18:00 +33°C° 0 mm 7 m/s 761 mmHg 37%
    19:00 +32°C° 0 mm 8 m/s 761 mmHg 40%
    20:00 +31°C° 0 mm 8 m/s 761 mmHg 41%
    21:00 +31°C° 0 mm 8 m/s 761 mmHg 42%
    22:00 +29°C° 0 mm 8 m/s 761 mmHg 43%
    23:00 +29°C° 0 mm 7 m/s 761 mmHg 43%

    28 Maio, Segunda-feira

    Tempo Temperatura Precipitação Vento Pressão Humidade
    00:00 +29°C° 0 mm 6 m/s 761 mmHg 42%
    01:00 +29°C° 0 mm 5 m/s 761 mmHg 41%
    02:00 +28°C° 0 mm 5 m/s 761 mmHg 41%
    03:00 +28°C° 0 mm 5 m/s 760 mmHg 41%
    04:00 +28°C° 0 mm 6 m/s 760 mmHg 41%
    05:00 +28°C° 0 mm 5 m/s 760 mmHg 40%
    06:00 +29°C° 0 mm 5 m/s 760 mmHg 39%
    07:00 +29°C° 0 mm 4 m/s 761 mmHg 38%
    08:00 +32°C° 0 mm 4 m/s 761 mmHg 34%
    09:00 +34°C° 0 mm 4 m/s 761 mmHg 29%
    10:00 +35°C° 0 mm 4 m/s 761 mmHg 25%
    11:00 +36°C° 0 mm 5 m/s 760 mmHg 24%
    12:00 +37°C° 0 mm 5 m/s 760 mmHg 23%
    13:00 +39°C° 0 mm 6 m/s 760 mmHg 22%
    14:00 +39°C° 0 mm 7 m/s 759 mmHg 23%
    15:00 +39°C° 0 mm 7 m/s 759 mmHg 24%
    16:00 +39°C° 0 mm 8 m/s 759 mmHg 25%
    17:00 +38°C° 0 mm 9 m/s 758 mmHg 27%
    18:00 +35°C° 0 mm 9 m/s 758 mmHg 30%
    19:00 +34°C° 0 mm 9 m/s 758 mmHg 33%
    20:00 +34°C° 0 mm 9 m/s 758 mmHg 31%
    21:00 +34°C° 0 mm 9 m/s 758 mmHg 29%
    22:00 +34°C° 0 mm 9 m/s 759 mmHg 28%
    23:00 +34°C° 0 mm 8 m/s 759 mmHg 27%

    29 Maio, Terça-feira

    Tempo Temperatura Precipitação Vento Pressão Humidade
    00:00 +34°C° 0 mm 7 m/s 759 mmHg 27%
    01:00 +33°C° 0 mm 7 m/s 759 mmHg 27%
    02:00 +33°C° 0 mm 6 m/s 758 mmHg 27%
    03:00 +33°C° 0 mm 6 m/s 758 mmHg 28%
    04:00 +32°C° 0 mm 6 m/s 757 mmHg 29%
    05:00 +33°C° 0 mm 6 m/s 757 mmHg 28%
    06:00 +33°C° 0 mm 6 m/s 757 mmHg 28%
    07:00 +33°C° 0 mm 6 m/s 757 mmHg 27%
    08:00 +35°C° 0 mm 5 m/s 757 mmHg 23%
    09:00 +37°C° 0 mm 5 m/s 758 mmHg 20%
    10:00 +40°C° 0 mm 4 m/s 758 mmHg 16%
    11:00 +41°C° 0 mm 5 m/s 757 mmHg 16%
    12:00 +42°C° 0 mm 5 m/s 757 mmHg 15%
    13:00 +45°C° 0 mm 5 m/s 756 mmHg 14%
    14:00 +44°C° 0,1 mm 6 m/s 756 mmHg 16%
    15:00 +43°C° 0,1 mm 7 m/s 755 mmHg 19%
    16:00 +41°C° 0,1 mm 7 m/s 755 mmHg 21%
    17:00 +41°C° 0 mm 8 m/s 754 mmHg 22%
    18:00 +40°C° 0 mm 9 m/s 754 mmHg 23%
    19:00 +39°C° 0 mm 10 m/s 754 mmHg 23%
    20:00 +39°C° 0,2 mm 10 m/s 754 mmHg 23%
    21:00 +39°C° 0,2 mm 10 m/s 755 mmHg 22%
    22:00 +38°C° 0,2 mm 9 m/s 755 mmHg 21%
    23:00 +37°C° 0,2 mm 9 m/s 755 mmHg 24%

    30 Maio, Quarta-feira

    Tempo Temperatura Precipitação Vento Pressão Humidade
    00:00 +35°C° 0,2 mm 8 m/s 755 mmHg 26%
    01:00 +34°C° 0,2 mm 8 m/s 755 mmHg 28%
    02:00 +34°C° 0 mm 8 m/s 754 mmHg 28%
    03:00 +34°C° 0 mm 8 m/s 754 mmHg 28%
    04:00 +33°C° 0 mm 7 m/s 754 mmHg 28%
    05:00 +33°C° 0 mm 7 m/s 754 mmHg 27%
    06:00 +34°C° 0 mm 6 m/s 754 mmHg 26%
    07:00 +34°C° 0 mm 5 m/s 755 mmHg 25%
    08:00 +35°C° 0 mm 5 m/s 755 mmHg 27%
    09:00 +35°C° 0 mm 5 m/s 755 mmHg 29%
    10:00 +36°C° 0 mm 5 m/s 755 mmHg 30%
    11:00 +36°C° 0 mm 5 m/s 755 mmHg 31%
    12:00 +36°C° 0 mm 5 m/s 754 mmHg 32%
    13:00 +36°C° 0 mm 5 m/s 754 mmHg 33%
    14:00 +36°C° 0 mm 5 m/s 754 mmHg 34%
    15:00 +35°C° 0 mm 5 m/s 754 mmHg 35%
    16:00 +35°C° 0 mm 6 m/s 754 mmHg 35%
    17:00 +33°C° 0 mm 5 m/s 754 mmHg 42%
    18:00 +32°C° 0 mm 5 m/s 755 mmHg 48%
    19:00 +29°C° 0 mm 5 m/s 755 mmHg 55%
    20:00 +28°C° 0 mm 5 m/s 756 mmHg 60%
    21:00 +27°C° 0 mm 5 m/s 756 mmHg 65%
    22:00 +26°C° 0 mm 5 m/s 757 mmHg 71%
    23:00 +26°C° 0 mm 5 m/s 757 mmHg 72%
    Mostrar mais